When you browse on this site, cookies collect data to enhance your experience and personalize the content and advertising you see.
Visit our Privacy Policy to learn more. By continuing to use the site, you agree to this use of cookies and data.
  • în România
  • Lista ţărilor
  • Pe 7 zile
  • Temperatura apei
  • Hartă satelitară
  • Meteo pe hartă
  • Widget-uri
  • user-avatar
    Intrare

    Meteo pe oră la Rechane

    Astăzi, 19 Iulie, Vineri

    Timp Temperatura Precipitaţii Vânt Presiune Umiditate
    00:00 +13°C° 0.1 mm 1 m/s 735 mmHg 99%
    01:00 +13°C° 0.1 mm 1 m/s 736 mmHg 99%
    02:00 +14°C° 0 mm 1 m/s 736 mmHg 97%
    03:00 +14°C° 0 mm 1 m/s 736 mmHg 98%
    04:00 +14°C° 0 mm 1 m/s 737 mmHg 98%
    05:00 +15°C° 0 mm 1 m/s 737 mmHg 98%
    06:00 +15°C° 0.4 mm 1 m/s 737 mmHg 97%
    07:00 +15°C° 0.4 mm 1 m/s 737 mmHg 96%
    08:00 +16°C° 0.4 mm 2 m/s 737 mmHg 96%
    09:00 +16°C° 1.5 mm 2 m/s 738 mmHg 94%
    10:00 +17°C° 1.5 mm 3 m/s 738 mmHg 93%
    11:00 +18°C° 1.5 mm 3 m/s 738 mmHg 92%
    12:00 +18°C° 1.3 mm 4 m/s 738 mmHg 92%
    13:00 +18°C° 1.3 mm 4 m/s 738 mmHg 91%
    14:00 +17°C° 1.3 mm 5 m/s 738 mmHg 91%
    15:00 +17°C° 0.3 mm 5 m/s 738 mmHg 90%
    16:00 +17°C° 0.3 mm 5 m/s 739 mmHg 88%
    17:00 +17°C° 0.3 mm 5 m/s 739 mmHg 87%
    18:00 +17°C° 0.2 mm 4 m/s 739 mmHg 89%
    19:00 +15°C° 0.2 mm 4 m/s 739 mmHg 92%
    20:00 +15°C° 0.2 mm 4 m/s 739 mmHg 95%
    21:00 +16°C° 0.1 mm 3 m/s 739 mmHg 95%
    22:00 +14°C° 0.1 mm 3 m/s 740 mmHg 96%
    23:00 +14°C° 0.1 mm 3 m/s 740 mmHg 96%

    Mâine, 20 Iulie, Sâmbătă

    Timp Temperatura Precipitaţii Vânt Presiune Umiditate
    00:00 +14°C° 0.1 mm 3 m/s 740 mmHg 96%
    01:00 +14°C° 0.1 mm 3 m/s 740 mmHg 97%
    02:00 +14°C° 0.1 mm 3 m/s 741 mmHg 97%
    03:00 +14°C° 0.1 mm 3 m/s 741 mmHg 97%
    04:00 +14°C° 0.1 mm 4 m/s 741 mmHg 97%
    05:00 +14°C° 0.1 mm 4 m/s 741 mmHg 97%
    06:00 +14°C° 0.1 mm 4 m/s 741 mmHg 97%
    07:00 +14°C° 0.1 mm 4 m/s 742 mmHg 96%
    08:00 +14°C° 0.1 mm 4 m/s 742 mmHg 96%
    09:00 +15°C° 0.1 mm 4 m/s 742 mmHg 94%
    10:00 +15°C° 0.1 mm 4 m/s 743 mmHg 93%
    11:00 +17°C° 0.1 mm 4 m/s 743 mmHg 91%
    12:00 +18°C° 0.2 mm 4 m/s 743 mmHg 85%
    13:00 +20°C° 0.2 mm 4 m/s 744 mmHg 78%
    14:00 +21°C° 0.2 mm 4 m/s 744 mmHg 72%
    15:00 +21°C° 0.4 mm 4 m/s 744 mmHg 75%
    16:00 +20°C° 0.4 mm 4 m/s 744 mmHg 78%
    17:00 +20°C° 0.4 mm 4 m/s 744 mmHg 81%
    18:00 +19°C° 0.2 mm 3 m/s 745 mmHg 86%
    19:00 +18°C° 0.2 mm 3 m/s 745 mmHg 90%
    20:00 +17°C° 0.2 mm 2 m/s 745 mmHg 95%
    21:00 +16°C° 0 mm 2 m/s 745 mmHg 95%
    22:00 +15°C° 0 mm 2 m/s 745 mmHg 96%
    23:00 +14°C° 0 mm 2 m/s 746 mmHg 97%

    Poimâine, 21 Iulie, Duminică

    Timp Temperatura Precipitaţii Vânt Presiune Umiditate
    00:00 +14°C° 0 mm 2 m/s 746 mmHg 97%
    01:00 +14°C° 0 mm 2 m/s 746 mmHg 97%
    02:00 +13°C° 0 mm 2 m/s 746 mmHg 98%
    03:00 +13°C° 0 mm 2 m/s 746 mmHg 98%
    04:00 +13°C° 0 mm 1 m/s 746 mmHg 98%
    05:00 +13°C° 0 mm 1 m/s 747 mmHg 98%
    06:00 +15°C° 0 mm 1 m/s 747 mmHg 92%
    07:00 +18°C° 0 mm 1 m/s 747 mmHg 87%
    08:00 +19°C° 0 mm 1 m/s 747 mmHg 81%
    09:00 +19°C° 0.3 mm 2 m/s 747 mmHg 76%
    10:00 +21°C° 0.3 mm 2 m/s 747 mmHg 72%
    11:00 +23°C° 0.3 mm 2 m/s 747 mmHg 67%
    12:00 +23°C° 0.2 mm 2 m/s 747 mmHg 63%
    13:00 +24°C° 0.2 mm 2 m/s 747 mmHg 59%
    14:00 +25°C° 0.2 mm 2 m/s 747 mmHg 55%
    15:00 +25°C° 0.1 mm 2 m/s 747 mmHg 57%
    16:00 +24°C° 0.1 mm 2 m/s 747 mmHg 59%
    17:00 +24°C° 0.1 mm 2 m/s 747 mmHg 61%
    18:00 +22°C° 0.1 mm 1 m/s 746 mmHg 68%
    19:00 +20°C° 0.1 mm 1 m/s 746 mmHg 75%
    20:00 +18°C° 0.1 mm 1 m/s 746 mmHg 82%
    21:00 +16°C° 0 mm 1 m/s 746 mmHg 84%
    22:00 +15°C° 0 mm 1 m/s 746 mmHg 86%
    23:00 +13°C° 0 mm 0 m/s 746 mmHg 88%

    22 Iulie, Luni

    Timp Temperatura Precipitaţii Vânt Presiune Umiditate
    00:00 +13°C° 0 mm 0 m/s 746 mmHg 89%
    01:00 +13°C° 0 mm 0 m/s 746 mmHg 89%
    02:00 +12°C° 0 mm 0 m/s 746 mmHg 89%
    03:00 +13°C° 0 mm 0 m/s 746 mmHg 88%
    04:00 +13°C° 0 mm 0 m/s 746 mmHg 87%
    05:00 +14°C° 0 mm 1 m/s 746 mmHg 86%
    06:00 +16°C° 0 mm 1 m/s 746 mmHg 78%
    07:00 +20°C° 0 mm 1 m/s 746 mmHg 71%
    08:00 +22°C° 0 mm 1 m/s 746 mmHg 63%
    09:00 +23°C° 0 mm 1 m/s 745 mmHg 58%
    10:00 +24°C° 0 mm 1 m/s 745 mmHg 52%
    11:00 +25°C° 0 mm 1 m/s 745 mmHg 47%
    12:00 +26°C° 0 mm 1 m/s 745 mmHg 45%
    13:00 +26°C° 0 mm 1 m/s 745 mmHg 44%
    14:00 +27°C° 0 mm 1 m/s 745 mmHg 42%
    15:00 +27°C° 0 mm 1 m/s 744 mmHg 44%
    16:00 +26°C° 0 mm 1 m/s 744 mmHg 46%
    17:00 +26°C° 0 mm 1 m/s 744 mmHg 48%
    18:00 +24°C° 0 mm 1 m/s 744 mmHg 57%
    19:00 +22°C° 0 mm 1 m/s 744 mmHg 66%
    20:00 +19°C° 0 mm 2 m/s 744 mmHg 76%
    21:00 +18°C° 0 mm 2 m/s 744 mmHg 79%
    22:00 +17°C° 0 mm 2 m/s 744 mmHg 82%
    23:00 +16°C° 0 mm 2 m/s 744 mmHg 85%

    23 Iulie, Marţi

    Timp Temperatura Precipitaţii Vânt Presiune Umiditate
    00:00 +15°C° 0 mm 1 m/s 744 mmHg 87%
    01:00 +15°C° 0 mm 1 m/s 744 mmHg 88%
    02:00 +15°C° 0 mm 1 m/s 744 mmHg 90%
    03:00 +15°C° 0 mm 1 m/s 744 mmHg 89%
    04:00 +15°C° 0 mm 1 m/s 744 mmHg 88%
    05:00 +15°C° 0 mm 1 m/s 744 mmHg 88%
    06:00 +18°C° 0 mm 1 m/s 744 mmHg 81%
    07:00 +20°C° 0 mm 1 m/s 744 mmHg 74%
    08:00 +21°C° 0 mm 1 m/s 744 mmHg 67%
    09:00 +22°C° 0 mm 1 m/s 744 mmHg 61%
    10:00 +24°C° 0 mm 1 m/s 744 mmHg 56%
    11:00 +25°C° 0 mm 2 m/s 744 mmHg 50%
    12:00 +25°C° 0 mm 2 m/s 744 mmHg 49%
    13:00 +25°C° 0 mm 2 m/s 744 mmHg 49%
    14:00 +25°C° 0 mm 2 m/s 744 mmHg 48%
    15:00 +25°C° 0 mm 2 m/s 744 mmHg 53%
    16:00 +24°C° 0 mm 2 m/s 744 mmHg 58%
    17:00 +22°C° 0 mm 3 m/s 744 mmHg 63%
    18:00 +21°C° 0 mm 3 m/s 744 mmHg 66%
    19:00 +20°C° 0 mm 2 m/s 745 mmHg 69%
    20:00 +19°C° 0 mm 2 m/s 745 mmHg 72%
    21:00 +18°C° 0 mm 2 m/s 745 mmHg 70%
    22:00 +18°C° 0 mm 2 m/s 745 mmHg 69%
    23:00 +17°C° 0 mm 2 m/s 745 mmHg 67%

    24 Iulie, Miercuri

    Timp Temperatura Precipitaţii Vânt Presiune Umiditate
    00:00 +16°C° 0 mm 2 m/s 745 mmHg 69%
    01:00 +16°C° 0 mm 2 m/s 746 mmHg 71%
    02:00 +15°C° 0 mm 2 m/s 746 mmHg 73%
    03:00 +15°C° 0 mm 2 m/s 746 mmHg 77%
    04:00 +14°C° 0 mm 2 m/s 746 mmHg 80%
    05:00 +14°C° 0 mm 2 m/s 746 mmHg 83%
    06:00 +15°C° 0 mm 2 m/s 746 mmHg 76%
    07:00 +17°C° 0 mm 3 m/s 746 mmHg 68%
    08:00 +19°C° 0 mm 3 m/s 746 mmHg 61%
    09:00 +20°C° 0 mm 3 m/s 746 mmHg 55%
    10:00 +21°C° 0 mm 3 m/s 746 mmHg 49%
    11:00 +24°C° 0 mm 3 m/s 746 mmHg 43%
    12:00 +23°C° 0 mm 4 m/s 746 mmHg 43%
    13:00 +25°C° 0 mm 4 m/s 746 mmHg 44%
    14:00 +25°C° 0 mm 4 m/s 746 mmHg 44%
    15:00 +25°C° 0 mm 4 m/s 746 mmHg 47%
    16:00 +24°C° 0 mm 3 m/s 746 mmHg 50%
    17:00 +24°C° 0 mm 3 m/s 746 mmHg 53%
    18:00 +21°C° 0 mm 2 m/s 746 mmHg 60%
    19:00 +19°C° 0 mm 2 m/s 746 mmHg 67%
    20:00 +19°C° 0 mm 1 m/s 746 mmHg 74%
    21:00 +17°C° 0 mm 2 m/s 746 mmHg 79%
    22:00 +16°C° 0 mm 2 m/s 746 mmHg 83%
    23:00 +16°C° 0 mm 2 m/s 747 mmHg 88%
    Arată mai mult